CZ-2F DEB (53361 NORAD) Tracking and Keplerian Element Data

This shows tracking and keplerian element data for the satellite.

Feedback or suggestion? Click here.




ElementValue
Catalog53361
NameCZ-2F DEB
Epoch Orbit372
Epoch Day241.49948814
Epoch Year2022
RAAN46.4521
Inclination49.7537
Eccentricity0.0333052
Argument of Perigee248.0693
Mean Anonmoly108.4538
Mean Motion14.97425804
Decay Rate0.00071426
L11 53361U 22093E 22241.49948814 .00071426 00000+0 18511-2 0 9999
L22 53361 49.7537 46.4521 0333052 248.0693 108.4538 14.97425804 3720

Live tracking and technical data element details for CZ-2F DEB (NORAD 53361). CZ-2F DEB can be tracked NOW for your location showing map with azimuth and elevation plus other details from your city location.

Track the satellite on the map from your city or location and see movement details for azimuth, elevation, latitude, longitude, range, height, and movement on the map or in text.







IsCatalogInMostPopularTable: catalog: 53361, numindb: 4
Update: records affected: 1



GetName: 53361 CZ-2F DEB

Hit Count: updated at: Fri, 30 Sep 2022 04:24:37 GMT